FW9064 Weather Reports


Display with metric or nautical units.
time (UTC)temp
F
wind
direction
speed
MPH
gust
MPH
rain 1hr
in
rain 24hr
in
rain mn
in
humidity
%
barometer
mb
20260504225649 76 117 0.0 0.0 0.00 0.00 0.00 42 1013.8
20260504225144 76 123 1.0 2.0 0.00 0.00 0.00 41 1013.6
20260504224642 77 121 0.0 1.0 0.00 0.00 0.00 42 1013.8
20260504224138 77 105 0.0 0.0 0.00 0.00 0.00 41 1013.7
20260504223636 77 112 0.0 1.0 0.00 0.00 0.00 39 1013.8
20260504223131 77 229 2.0 3.0 0.00 0.00 0.00 40 1013.9
20260504222628 78 162 1.0 1.0 0.00 0.00 0.00 42 1013.9
20260504222125 78 133 3.0 3.0 0.00 0.00 0.00 39 1013.9
20260504221623 78 113 1.0 1.0 0.00 0.00 0.00 39 1014.0
20260504221120 78 107 0.0 1.0 0.00 0.00 0.00 38 1014.0
20260504220616 78 155 4.0 6.0 0.00 0.00 0.00 37 1013.9
20260504220114 78 124 1.0 1.0 0.00 0.00 0.00 38 1014.0
20260504215609 79 130 2.0 3.0 0.00 0.00 0.00 39 1014.0
20260504215107 79 95 0.0 1.0 0.00 0.00 0.00 40 1013.9
20260504214603 79 187 4.0 5.0 0.00 0.00 0.00 38 1014.1
20260504214059 79 114 0.0 0.0 0.00 0.00 0.00 41 1014.0
20260504213556 79 105 1.0 1.0 0.00 0.00 0.00 39 1013.9
20260504213053 78 102 1.0 1.0 0.00 0.00 0.00 39 1014.0
20260504212549 78 114 0.0 0.0 0.00 0.00 0.00 42 1014.1
20260504212046 78 141 0.0 0.0 0.00 0.00 0.00 40 1014.2
20260504211543 78 94 0.0 1.0 0.00 0.00 0.00 39 1014.2
20260504211040 77 159 2.0 5.0 0.00 0.00 0.00 39 1013.9
20260504210537 78 133 1.0 1.0 0.00 0.00 0.00 41 1014.2
20260504210034 78 157 2.0 2.0 0.00 0.00 0.00 39 1014.3
20260504205532 78 131 0.0 1.0 0.00 0.00 0.00 40 1014.2
20260504205029 78 112 0.0 1.0 0.00 0.00 0.00 42 1014.4
20260504204527 78 103 1.0 2.0 0.00 0.00 0.00 43 1014.1
20260504204026 79 153 2.0 2.0 0.00 0.00 0.00 42 1014.2
20260504203524 79 149 1.0 2.0 0.00 0.00 0.00 45 1014.1
20260504203021 78 116 2.0 2.0 0.00 0.00 0.00 42 1014.3
20260504202516 80 116 1.0 2.0 0.00 0.00 0.00 42 1014.2
20260504202013 79 150 1.0 1.0 0.00 0.00 0.00 44 1014.2
20260504201510 79 142 2.0 2.0 0.00 0.00 0.00 42 1014.2
20260504201008 79 187 1.0 1.0 0.00 0.00 0.00 42 1014.6
20260504200504 79 140 1.0 2.0 0.00 0.00 0.00 40 1014.6
20260504200001 79 126 1.0 2.0 0.00 0.00 0.00 40 1014.9
20260504195457 78 199 5.0 6.0 0.00 0.00 0.00 40 1014.6
20260504194954 79 118 2.0 2.0 0.00 0.00 0.00 38 1014.8
20260504194450 79 120 1.0 1.0 0.00 0.00 0.00 41 1015.2
20260504193946 78 136 1.0 1.0 0.00 0.00 0.00 43 1014.9
20260504193443 79 111 1.0 2.0 0.00 0.00 0.00 41 1015.0
20260504192942 79 142 0.0 1.0 0.00 0.00 0.00 39 1015.3
20260504192438 79 168 2.0 2.0 0.00 0.00 0.00 40 1015.3
20260504191938 80 94 1.0 2.0 0.00 0.00 0.00 37 1015.2
20260504191435 82 207 2.0 2.0 0.00 0.00 0.00 39 1015.0
20260504190930 82 115 1.0 1.0 0.00 0.00 0.00 38 1015.2
20260504190426 81 112 1.0 1.0 0.00 0.00 0.00 39 1015.4
20260504185923 81 115 1.0 1.0 0.00 0.00 0.00 38 1015.9
20260504185420 81 120 1.0 1.0 0.00 0.00 0.00 43 1015.8
20260504184916 80 117 0.0 1.0 0.00 0.00 0.00 41 1015.9
20260504184412 81 136 0.0 0.0 0.00 0.00 0.00 43 1015.9
20260504183908 80 174 3.0 3.0 0.00 0.00 0.00 40 1015.9
20260504183405 81 120 1.0 1.0 0.00 0.00 0.00 44 1016.0
20260504182903 81 99 1.0 1.0 0.00 0.00 0.00 44 1015.8
20260504182400 80 103 0.0 0.0 0.00 0.00 0.00 39 1016.3
20260504181856 80 90 0.0 0.0 0.00 0.00 0.00 39 1016.2
20260504181354 80 99 0.0 0.0 0.00 0.00 0.00 40 1016.0
20260504180853 80 188 2.0 3.0 0.00 0.00 0.00 41 1016.3
20260504180351 80 150 0.0 1.0 0.00 0.00 0.00 40 1016.4
20260504175849 79 120 1.0 2.0 0.00 0.00 0.00 40 1016.5
20260504175345 79 111 0.0 1.0 0.00 0.00 0.00 43 1016.6
20260504174844 80 107 0.0 1.0 0.00 0.00 0.00 43 1016.5
20260504174341 79 187 1.0 2.0 0.00 0.00 0.00 44 1016.6
20260504173838 79 109 0.0 0.0 0.00 0.00 0.00 44 1016.5
20260504173334 79 129 2.0 2.0 0.00 0.00 0.00 43 1016.6
20260504172831 79 132 1.0 2.0 0.00 0.00 0.00 45 1016.5
20260504172328 79 115 0.0 0.0 0.00 0.00 0.00 46 1016.8
20260504171824 78 103 0.0 0.0 0.00 0.00 0.00 44 1016.6
20260504171321 78 178 1.0 2.0 0.00 0.00 0.00 47 1016.9
20260504170819 78 124 0.0 1.0 0.00 0.00 0.00 44 1017.1
20260504170315 78 105 1.0 2.0 0.00 0.00 0.00 42 1017.1
20260504160233 76 114 0.0 0.0 0.00 0.00 0.00 47 1017.9
20260504150659 71 103 1.0 1.0 0.00 0.00 0.00 58 1018.1
20260504150156 70 96 0.0 1.0 0.00 0.00 0.00 60 1018.1
20260504141124 66 97 0.0 0.0 0.00 0.00 0.00 65 1018.4
20260504140621 65 138 1.0 1.0 0.00 0.00 0.00 64 1018.4
20260504140117 65 108 0.0 0.0 0.00 0.00 0.00 66 1018.4
20260504130545 57 108 0.0 0.0 0.00 0.00 0.00 88 1018.5
20260504110433 41 110 0.0 0.0 0.00 0.00 0.00 99 1018.0
20260504100349 42 109 0.0 0.0 0.00 0.00 0.00 99 1017.7
20260504081742 43 113 0.0 0.0 0.00 0.00 0.00 99 1017.6
20260504081239 43 110 0.0 0.0 0.00 0.00 0.00 99 1017.6
20260504080736 43 110 0.0 0.0 0.00 0.00 0.00 99 1017.8
20260504080232 43 110 0.0 0.0 0.00 0.00 0.00 99 1018.0
20260504070200 44 111 0.0 0.0 0.00 0.00 0.00 99 1017.9
20260504060120 44 110 0.0 0.0 0.00 0.00 0.00 98 1018.7
20260504050548 46 110 0.0 0.0 0.00 0.00 0.00 98 1018.7
20260504045542 46 110 0.0 0.0 0.00 0.00 0.00 97 1018.9
20260504045037 46 108 0.0 0.0 0.00 0.00 0.00 97 1018.8
20260504044535 46 110 0.0 0.0 0.00 0.00 0.00 97 1018.9
20260504044032 47 111 0.0 0.0 0.00 0.00 0.00 97 1018.9
20260504043529 47 112 0.0 0.0 0.00 0.00 0.00 97 1018.9
20260504043026 47 110 0.0 0.0 0.00 0.00 0.00 97 1019.1
20260504042523 47 112 0.0 0.0 0.00 0.00 0.00 96 1019.1
20260504042020 47 110 0.0 0.0 0.00 0.00 0.00 96 1019.3
20260504041516 47 114 0.0 0.0 0.00 0.00 0.00 96 1019.0
20260504041012 47 111 0.0 0.0 0.00 0.00 0.00 96 1019.0
20260504040510 47 110 0.0 0.0 0.00 0.00 0.00 96 1019.0
20260504040006 48 110 0.0 0.0 0.00 0.00 0.00 95 1019.1
20260504035504 48 114 0.0 0.0 0.00 0.00 0.00 95 1019.3
20260504034959 48 110 0.0 0.0 0.00 0.00 0.00 95 1019.3
20260504034457 48 111 0.0 0.0 0.00 0.00 0.00 95 1019.1
20260504033954 48 111 0.0 0.0 0.00 0.00 0.00 94 1019.5
20260504033452 48 111 0.0 0.0 0.00 0.00 0.00 94 1019.4
20260504032949 49 110 0.0 0.0 0.00 0.00 0.00 94 1019.5
20260504032446 49 110 0.0 0.0 0.00 0.00 0.00 93 1019.3
20260504031942 49 110 0.0 0.0 0.00 0.00 0.00 93 1019.5
20260504031439 49 112 0.0 0.0 0.00 0.00 0.00 93 1019.4
20260504030936 50 112 0.0 0.0 0.00 0.00 0.00 92 1019.4
20260504030433 50 113 0.0 0.0 0.00 0.00 0.00 92 1019.1
20260504025929 50 111 0.0 0.0 0.00 0.00 0.00 92 1019.2
20260504025426 50 110 0.0 0.0 0.00 0.00 0.00 92 1019.0
20260504024923 50 110 0.0 0.0 0.00 0.00 0.00 91 1019.1
20260504024420 50 111 0.0 0.0 0.00 0.00 0.00 91 1019.0
20260504023917 51 112 0.0 0.0 0.00 0.00 0.00 90 1018.8
20260504023413 51 111 0.0 0.0 0.00 0.00 0.00 89 1019.0
20260504022909 51 112 0.0 0.0 0.00 0.00 0.00 89 1018.8
20260504022406 51 111 0.0 0.0 0.00 0.00 0.00 89 1019.0
20260504021902 51 111 0.0 0.0 0.00 0.00 0.00 89 1018.8
20260504021400 51 111 0.0 0.0 0.00 0.00 0.00 88 1018.7
20260504020857 52 111 0.0 0.0 0.00 0.00 0.00 88 1018.7
20260504020353 52 115 0.0 0.0 0.00 0.00 0.00 87 1019.0
20260504015849 53 114 0.0 0.0 0.00 0.00 0.00 87 1018.8
20260504015346 53 111 0.0 0.0 0.00 0.00 0.00 86 1018.8
20260504014842 53 114 0.0 0.0 0.00 0.00 0.00 85 1018.7
20260504014338 53 110 0.0 0.0 0.00 0.00 0.00 85 1018.6
20260504013836 54 111 0.0 0.0 0.00 0.00 0.00 84 1018.5
20260504013334 54 114 0.0 0.0 0.00 0.00 0.00 84 1018.2
20260504012830 54 115 0.0 0.0 0.00 0.00 0.00 83 1018.4
20260504012328 54 111 0.0 0.0 0.00 0.00 0.00 82 1018.2
20260504011825 55 111 0.0 0.0 0.00 0.00 0.00 80 1018.4
20260504011321 55 107 0.0 0.0 0.00 0.00 0.00 80 1018.5
20260504010817 55 110 0.0 0.0 0.00 0.00 0.00 79 1018.3
20260504010313 56 111 0.0 0.0 0.00 0.00 0.00 79 1018.2
20260504005810 56 111 0.0 0.0 0.00 0.00 0.00 78 1018.1
20260504005307 57 112 0.0 0.0 0.00 0.00 0.00 77 1018.2
20260504004805 57 111 0.0 0.0 0.00 0.00 0.00 76 1017.9
20260504004302 58 111 0.0 0.0 0.00 0.00 0.00 75 1018.0
20260504003758 59 109 0.0 0.0 0.00 0.00 0.00 74 1018.1
20260504003255 59 111 0.0 0.0 0.00 0.00 0.00 73 1018.0
20260504002751 60 110 0.0 0.0 0.00 0.00 0.00 71 1018.1
20260504002249 60 111 0.0 0.0 0.00 0.00 0.00 70 1017.9
20260504001746 61 111 0.0 0.0 0.00 0.00 0.00 68 1018.1
20260504001243 61 110 0.0 0.0 0.00 0.00 0.00 68 1017.9
20260504000740 62 112 0.0 0.0 0.00 0.00 0.00 67 1017.9
20260504000237 63 111 0.0 0.0 0.00 0.00 0.00 65 1017.8
20260503235735 63 111 0.0 0.0 0.00 0.00 0.00 64 1018.0
20260503235232 64 111 0.0 0.0 0.00 0.00 0.00 62 1017.7
20260503234730 65 112 0.0 0.0 0.00 0.00 0.00 60 1017.8
20260503234228 66 112 0.0 0.0 0.00 0.00 0.00 57 1017.6
20260503233725 66 112 0.0 0.0 0.00 0.00 0.00 53 1017.8
20260503233220 66 113 0.0 0.0 0.00 0.00 0.00 49 1017.8
20260503232717 67 112 0.0 0.0 0.00 0.00 0.00 48 1017.7
20260503232214 67 117 0.0 0.0 0.00 0.00 0.00 47 1018.0
20260503231713 67 114 0.0 0.0 0.00 0.00 0.00 50 1017.9
20260503231209 67 115 0.0 0.0 0.00 0.00 0.00 47 1017.9
20260503230705 68 111 0.0 0.0 0.00 0.00 0.00 44 1017.8
20260503230203 68 112 0.0 0.0 0.00 0.00 0.00 44 1018.1